Regional Weather Roundup
Issued by NWS New Orleans/Baton Rouge, LA

Home | Current Version | Previous Version | Text Only | Print | Product List | Glossary On
Versions: 1 2 3 4 5 6 7 8 9 10 11 12 13 14 15 16 17 18 19 20 21 22 23 24 25 26 27 28
000
ASUS44 KLIX 060411
RWRLIX
NEW ORLEANS REGIONAL WEATHER ROUNDUP
NATIONAL WEATHER SERVICE NEW ORLEANS LA
1100 PM CDT THU MAY 05 2016

NOTE: "FAIR" INDICATES FEW OR NO CLOUDS BELOW 12,000 FEET WITH NO
      SIGNIFICANT WEATHER AND/OR OBSTRUCTIONS TO VISIBILITY.
      SKY/WX - SKY CONDITION AND SIGNIFICANT WEATHER.
      TMP - AIR TEMPERATURE.     DP    - DEWPOINT TEMPERATURE.
      RH  - RELATIVE HUMIDITY.   PRES  - PRESSURE.
      HI  - HEAT INDEX.          WCI   - WIND CHILL INDEX.

*  THESE STATIONS ARE NOT NWS OR FAA STATIONS AND ARE NOT UNDER
   NWS QUALITY CONTROL.

LAZ038-040-048-061>063-065>067-069-060500-
SOUTHEAST LOUISIANA

CITY           SKY/WX    TMP DP  RH WIND       PRES   REMARKS
N.O. AUDUBON     N/A    N/A N/A N/A MISG        N/A
N.O. INTL ARPT PTCLDY    71  46  40 N14       29.98R
N.O. LAKEFRONT CLEAR     69  51  52 N21       29.98R
N.O. DOWNTOWN*   N/A     72  45  37 N8G20     29.98R
RESERVE*         N/A     65  52  63 N3        29.99R
SLIDELL        PTCLDY    60  52  74 CALM      29.97R
BATON ROUGE    CLEAR     61  47  59 CALM      29.99R
BOOTHVILLE     CLEAR     72  51  47 N12G20    29.95R
BELLE CHASSE   CLEAR     69  47  45 N6        29.97R
BOGALUSA*        N/A     58  51  77 CALM      29.99R
GALLIANO*      CLEAR     67  52  58 N9        29.97R
NEW ROADS*       N/A     62  49  63 N6        30.00R
GONZALES*        N/A     61  49  65 N3        29.98R
HAMMOND*       CLEAR     59  45  58 N3        29.98R
HOUMA*           N/A     63  49  60 N8        29.98R
PORT FOURCHON* CLEAR     72  54  53 N13       29.97R

$$

MSZ070-080>082-060500-
SOUTHERN MISSISSIPPI

CITY           SKY/WX    TMP DP  RH WIND       PRES   REMARKS
MCCOMB         PTCLDY    57  48  72 CALM      29.99R
GULFPORT       PTCLDY    60  47  61 NW5       29.95R
BILOXI         PTCLDY    65  46  49 N8        29.95R
PASCAGOULA     PTCLDY    60  47  61 NW3       29.95R

$$

COASTAL OBSERVATIONS
LAKE AND NEARSHORE STATIONS

STATION/POSITION TIME  TEMP    WIND        PRES    WAVE
                       AIR SEA DIR/SP/G            HT/PER
                 (UTC) (F)     (DEG/KT/KT) (MB)    (FT/S)
PASCAGOULA       0300   68                 1013.0
WAVELAND YACHT   0300   69 73              1013.9
GRAND ISLE       0300   74 76              1013.4
SOUTHWEST PASS   0306          360/ 15/ 16   N/A
NEW CANAL        0300   73 75              1013.4
SHELL BEACH      0300   73 74              1013.9

OFFSHORE STATIONS

STATION/POSITION TIME  TEMP    WIND        PRES    WAVE
                       AIR SEA DIR/SP/G            HT/PER
                 (UTC) (F)     (DEG/KT/KT) (MB)    (FT/S)
64 S DAUPHIN ISL 0300   74 74   10/ 14/ 17 1012.5

$$





USA.gov is the U.S. government's official web portal to all federal, state and local government web resources and services.